Airfield :
LOGIN :

Register | Disclaimer

   EN    FR    IT 

 










Legend :    VFR   Marginal VFR   IFR   Intensive IFR   Very Intensive IFR
Visi :
Ceiling :
>= 8 km
>= 3000ft
5 to 8 km
1000 to 3000 ft
1500m to 5 km
500 to 1000 ft
800 to 1500m
200 to 500 ft
< 800m
< 200 ft
Symbols :   Thunderstorms  Fog  Heavy snow  Heavy precipitations  Wind > 20 kt
SIGMETs :     Misc.  Thunderstorms  Icing  Turbulence  Mountain Waves  Volcanic Ashes







- Airport Elevation : 1249 ft


ETSN - Neuburg AB

CURRENT METAR :
  • 160459Z VRB01KT 0400 FG FEW200 01/01 Q1018 RED

EXPIRED METARs :
  • 160420Z 00000KT 1200 VCFG FEW200 02/02 Q1018 AMB
  • 160333Z 26001KT 1200 VCFG FEW200 01/01 Q1018 AMB
  • 160320Z VRB02KT 8000 MIFG FEW200 03/02 Q1018 BLU+
  • 160220Z VRB01KT 9999 MIFG FEW200 03/03 Q1017 BLU+

TAF TAF ETSN
Valid from the 16 at 05:00 until the 16 at 14:00 UTC


160425Z 1605/1614 00000KT 3000 BR FEW200
TEMPO 1605/1608 15002KT 0500 FG SKC
BECMG 1608/1610 VRB03KT 9999 NSW FEW100 BY ETGL
No reported NOTAMs for that airfield.



MET'MAP, your aeronautical weather chart ! - Copyright ORBIFLY December 2007 - Disclaimer

ORBIFLY MET'MAP TEAM :

Programming & Development : Alexandra Zaïnal
Concept & Development : Baudouin d'Aumeries
Co-Development & Prog : Marc-Olivier Méhu
Technical & hardware support : Manuel Goepfert

Contact : metmap@orbifly.com




SOURCES & CREDITS :

   NOAA